Weather History for Lafayette, LA

Change the Weather History Date:

Sunday, September 16, 2012

  Actual Average Record
Temperature  
Mean Temperature 81 °F 79 °F  
Max Temperature 91 °F 89 °F 100 °F (1933)
Min Temperature 70 °F 70 °F 48 °F (1902)
Degree Days  
Heating Degree Days 0 0  
Month to date heating degree days 0 0  
Since 1 July heating degree days 0 0  
Cooling Degree Days 16 14  
Month to date cooling degree days 259 257  
Year to date cooling degree days 2706 2518  
Growing Degree Days 28 (Base 50)    
Moisture  
Dew Point 69 °F    
Average Humidity 70    
Maximum Humidity 90    
Minimum Humidity 50    
Precipitation  
Precipitation 0.00 in 0.15 in 4.63 in (1942)
Month to date precipitation 2.26 2.65  
Year to date precipitation 53.98 43.27  
Sea Level Pressure  
Sea Level Pressure 29.98 in    
Wind  
Wind Speed 1 mph (SSE)    
Max Wind Speed 9 mph    
Max Gust Speed 12 mph    
Visibility 10 miles    
Events      
T = Trace of Precipitation, MM = Missing Value Source: NWS Daily Summary

Daily Weather History Graph

Daily Weather History Graph

Search for Another Location

Airport:

Trip Planner

Search our weather history database for the weather conditions in past years. The results will help you decide how hot, cold, wet, or windy it might be!

Date:

Astronomy

Sep. 16, 2012 Rise Set
Actual Time 6:53 AM CDT 7:11 PM CDT
Civil Twilight 6:29 AM CDT 7:35 PM CDT
Nautical Twilight 6:01 AM CDT 8:03 PM CDT
Astronomical Twilight 5:32 AM CDT 8:31 PM CDT
Moon 7:25 AM CDT (9/16) 7:26 PM CDT (9/16)
Length of Visible Light 13h 06m
Length of Day
12h 18m
New Moon, 0% of the Moon is Illuminated
Sep 16
New Moon
Sep 22
First Quarter
Sep 29
Full
Oct 8
Last Quarter
Oct 15
New

Hourly Weather History & Observations

Time (CDT) Temp. Heat Index Dew Point Humidity Pressure Visibility Wind Dir Wind Speed Gust Speed Precip Events Conditions
12:53 AM 73.0 °F - 68.0 °F 84% 30.04 in 10.0 mi Calm Calm - N/A   Clear
1:53 AM 73.9 °F - 68.0 °F 82% 30.04 in 10.0 mi Calm Calm - N/A   Clear
2:53 AM 72.0 °F - 68.0 °F 87% 30.03 in 9.0 mi Calm Calm - N/A   Clear
3:53 AM 72.0 °F - 66.9 °F 84% 30.01 in 10.0 mi Calm Calm - N/A   Clear
4:53 AM 71.1 °F - 66.9 °F 87% 30.01 in 9.0 mi Calm Calm - N/A   Clear
5:53 AM 71.1 °F - 68.0 °F 90% 30.02 in 6.0 mi Calm Calm - N/A   Clear
6:53 AM 69.8 °F - 66.2 °F 88% 30.03 in 7.0 mi Calm Calm - N/A   Clear
7:53 AM 72.0 °F - 68.0 °F 87% 30.03 in 7.0 mi Calm Calm - N/A   Clear
8:53 AM 75.9 °F - 70.0 °F 82% 30.03 in 10.0 mi Calm Calm - N/A   Clear
9:53 AM 81.0 °F 84.9 °F 71.1 °F 72% 30.03 in 10.0 mi Calm Calm - N/A   Clear
10:53 AM 84.0 °F 88.4 °F 70.0 °F 63% 30.03 in 10.0 mi Calm Calm - N/A   Clear
11:53 AM 86.0 °F 89.4 °F 68.0 °F 55% 30.02 in 10.0 mi ESE 4.6 mph - N/A   Scattered Clouds
12:53 PM 88.0 °F 90.7 °F 66.9 °F 49% 30.00 in 10.0 mi Calm Calm - N/A   Clear
1:53 PM 88.0 °F 90.7 °F 66.9 °F 49% 29.99 in 10.0 mi Variable 4.6 mph - N/A   Clear
2:53 PM 88.0 °F 90.3 °F 66.0 °F 48% 29.95 in 10.0 mi Calm Calm - N/A   Clear
3:53 PM 88.0 °F 90.7 °F 66.9 °F 49% 29.94 in 10.0 mi Calm Calm - N/A   Partly Cloudy
4:53 PM 84.9 °F 89.4 °F 70.0 °F 61% 29.92 in 10.0 mi South 6.9 mph - N/A   Clear
5:53 PM 84.9 °F 88.8 °F 69.1 °F 59% 29.91 in 10.0 mi Calm Calm - N/A   Clear
6:53 PM 82.9 °F 87.0 °F 70.0 °F 65% 29.91 in 10.0 mi SSW 5.8 mph - N/A   Clear
7:53 PM 80.1 °F 84.2 °F 73.0 °F 79% 29.93 in 10.0 mi Calm Calm - N/A   Mostly Cloudy
8:53 PM 78.1 °F - 71.1 °F 79% 29.93 in 10.0 mi SE 4.6 mph - N/A   Scattered Clouds
9:53 PM 77.0 °F - 71.1 °F 82% 29.95 in 10.0 mi Calm Calm - N/A   Overcast
10:53 PM 77.0 °F - 71.1 °F 82% 29.94 in 10.0 mi Calm Calm - N/A   Mostly Cloudy
11:53 PM 75.9 °F - 72.0 °F 87% 29.94 in 10.0 mi Calm Calm - N/A   Scattered Clouds